DateTimeUTC,F1_A11,F1_S11,BsB_S11,BsG_S11,BsR_S11,BbsB_S11,BbsG_S11,BbsR_S11,BaB_A11,BaG_A11,BaR_A11,Tu_S11,T_S11,Uu_S11,U_S11,P_S11,T1_A11
2021-03-17T21:00:00Z,00040200,20000000,,,,,,,0000.28,-000.33,-000.32,17.3,24.5,03.0,01.9,0650.6,30.9
2021-03-17T21:01:00Z,00040200,20000000,,,,,,,0000.55,0000.61,0000.49,17.3,24.5,03.0,01.9,0650.6,30.9
2021-03-17T21:02:00Z,00040200,20000000,,,,,,,-000.09,0000.33,0000.01,17.3,24.5,03.0,01.9,0650.6,30.9
2021-03-17T21:03:00Z,00040200,60000000,,,,,,,-000.05,-000.53,0000.04,17.3,24.5,03.0,01.9,0650.6,30.9
2021-03-17T21:04:00Z,00040200,40000000,0000.39,0000.18,0000.05,0000.25,0000.10,-000.17,0000.24,0000.44,0000.14,17.4,24.4,03.1,02.0,0651.6,30.9
2021-03-17T21:05:00Z,00040200,00000000,0000.28,0000.58,-000.00,0000.33,0000.11,-000.09,0000.27,0000.22,0000.19,17.4,24.3,03.0,02.0,0651.6,30.9
2021-03-17T21:06:00Z,00040200,00000000,-000.00,0000.27,0000.05,0000.14,-000.25,-000.02,0000.10,-000.22,0000.17,17.5,24.3,03.1,02.0,0651.5,30.9
2021-03-17T21:07:00Z,00040200,00000000,0000.41,0000.12,0000.16,0000.06,0000.22,0000.18,0000.31,0000.39,0000.27,17.5,24.3,03.1,02.1,0651.4,30.9
2021-03-17T21:08:00Z,00040200,00000000,0000.53,0000.03,0000.40,0000.31,0000.19,-000.03,0000.18,0000.45,0000.17,17.5,24.3,03.0,02.0,0651.4,30.9
2021-03-17T21:09:00Z,00040200,00000000,0000.14,0000.05,0000.12,0000.15,-000.02,-000.19,0000.19,0000.44,0000.51,17.5,24.3,03.0,02.0,0651.4,30.9
2021-03-17T21:10:00Z,00040200,00000000,0000.67,0000.40,0000.20,0000.39,-000.12,-000.01,0000.11,-000.20,-000.18,17.5,24.3,03.1,02.0,0651.4,31.0
2021-03-17T21:11:00Z,00040200,00000000,-000.10,0000.22,0000.19,-000.10,-000.06,-000.10,0000.52,0000.28,0000.26,17.6,24.3,03.1,02.1,0651.4,31.0
2021-03-17T21:12:00Z,00040200,00000000,-000.13,0000.33,0000.17,0000.39,0000.10,-000.02,0000.00,0000.25,0000.28,17.6,24.3,03.1,02.0,0651.4,31.0
2021-03-17T21:13:00Z,00040200,00000000,0000.04,0000.07,-000.03,0000.35,0000.04,-000.07,-000.23,0000.12,-000.15,17.7,24.3,03.0,02.0,0651.4,31.0
2021-03-17T21:14:00Z,00040200,00000000,0000.61,0000.38,0000.05,0000.31,0000.06,0000.12,0000.03,-000.08,0000.13,17.7,24.3,02.9,02.0,0651.3,31.0
2021-03-17T21:15:00Z,00040200,00000000,0000.34,0000.16,-000.05,0000.10,-000.01,0000.09,0000.46,0000.25,0000.12,17.7,24.4,03.0,02.0,0651.3,31.0
2021-03-17T21:16:00Z,00040200,00000000,0000.32,0000.20,-000.11,0000.11,0000.00,-000.12,0000.43,0000.43,0000.34,17.7,24.4,03.0,02.0,0651.2,31.0
2021-03-17T21:17:00Z,00040200,00000000,0000.27,0000.19,-000.17,0000.16,-000.10,0000.02,-000.03,-000.17,-000.42,17.7,24.4,03.0,02.0,0651.3,31.0
2021-03-17T21:18:00Z,00040200,00000000,-000.32,0000.04,-000.07,0000.36,-000.01,-000.18,0000.20,0000.20,0000.25,17.7,24.4,03.1,02.0,0651.3,31.0
2021-03-17T21:19:00Z,00040200,00000000,0000.09,0000.15,0000.06,0000.27,-000.10,0000.02,0000.03,0000.09,0000.33,17.7,24.4,03.0,02.0,0651.2,31.0
2021-03-17T21:20:00Z,00040200,00000000,0000.50,-000.03,-000.08,0000.14,-000.21,-000.16,-000.18,0000.45,-000.14,17.7,24.4,03.0,02.0,0651.2,30.9
2021-03-17T21:21:00Z,00040200,00000000,0000.06,0000.02,-000.00,-000.07,-000.04,-000.08,-000.13,-000.15,0000.07,17.7,24.4,03.0,02.0,0651.2,31.0
2021-03-17T21:22:00Z,00040200,00000000,0000.30,0000.17,-000.06,0000.55,-000.02,-000.03,0000.58,0000.15,0000.13,17.7,24.3,03.0,02.0,0651.2,31.0
2021-03-17T21:23:00Z,00040200,00000000,0000.15,0000.42,0000.07,0000.07,-000.08,0000.02,-000.20,-000.04,0000.19,17.7,24.4,03.1,02.1,0651.0,30.9
2021-03-17T21:24:00Z,00040200,00000000,0000.21,0000.23,0000.14,-000.11,-000.14,0000.32,0000.39,0000.05,0000.01,17.7,24.3,03.0,02.0,0651.0,30.9
2021-03-17T21:25:00Z,00040200,00000000,0000.61,0000.18,0000.00,0000.31,0000.06,-000.21,-000.12,0000.37,-000.06,17.7,24.3,03.1,02.0,0650.9,31.0
2021-03-17T21:26:00Z,00040200,00000000,0000.30,0000.27,0000.11,0000.09,-000.12,0000.08,0000.51,-000.61,-000.14,17.7,24.3,03.1,02.1,0650.9,31.0
2021-03-17T21:27:00Z,00040200,00000000,0000.11,0000.30,-000.01,0000.17,-000.16,0000.14,-000.13,0000.57,0000.45,17.6,24.3,03.1,02.0,0650.9,30.9
2021-03-17T21:28:00Z,00040200,00000000,0000.40,0000.05,0000.14,0000.35,-000.20,-000.19,-000.22,-000.19,0000.22,17.6,24.3,02.9,01.9,0650.8,30.9
2021-03-17T21:29:00Z,00040200,00000000,0000.23,0000.06,0000.03,0000.15,0000.16,-000.08,0000.40,0000.13,0000.20,17.6,24.3,03.0,02.0,0650.7,30.9
2021-03-17T21:30:00Z,00040200,00000000,0000.51,-000.06,0000.06,0000.08,-000.04,-000.02,0000.02,0000.44,0000.02,17.6,24.3,03.0,02.0,0650.8,30.9
2021-03-17T21:31:00Z,00040200,00000000,0000.34,0000.29,-000.09,0000.13,-000.02,0000.10,0000.25,-000.24,0000.17,17.6,24.3,03.1,02.0,0650.9,30.9
2021-03-17T21:32:00Z,00040200,00000000,-000.18,0000.23,0000.14,-000.06,-000.14,0000.02,-000.02,0000.47,0000.12,17.6,24.3,03.0,02.0,0651.0,30.9
2021-03-17T21:33:00Z,00040200,00000000,0000.41,0000.14,-000.10,-000.01,-000.06,0000.04,0000.16,0000.07,-000.17,17.6,24.3,03.1,02.0,0651.0,30.9
2021-03-17T21:34:00Z,00040200,00000000,-000.35,0000.16,0000.01,-000.27,-000.04,-000.17,0000.33,-000.08,0000.01,17.6,24.3,03.0,02.0,0650.9,31.0
2021-03-17T21:35:00Z,00040200,00000000,0000.50,0000.34,0000.27,0000.25,-000.06,0000.05,0000.18,0000.26,0000.08,17.6,24.3,03.2,02.1,0650.8,30.9
2021-03-17T21:36:00Z,00040200,00000000,-000.15,0000.06,0000.16,0000.47,-000.00,0000.01,0000.23,0000.17,0000.44,17.6,24.3,03.1,02.0,0650.9,30.9
2021-03-17T21:37:00Z,00040200,00000000,-000.14,0000.19,-000.10,0000.40,0000.12,-000.11,-000.04,0000.25,0000.13,17.5,24.3,03.1,02.1,0650.9,30.9
2021-03-17T21:38:00Z,00040200,00000000,0000.17,0000.19,0000.02,-000.14,-000.01,0000.09,0000.23,0000.21,0000.24,17.5,24.3,03.2,02.2,0650.9,30.9
2021-03-17T21:39:00Z,00040200,00000000,0000.16,0000.15,-000.02,0000.38,0000.03,-000.06,0000.47,0000.23,0000.41,17.5,24.3,03.3,02.2,0650.9,30.9
2021-03-17T21:40:00Z,00040200,00000000,0000.81,0000.22,0000.21,0000.71,-000.01,-000.07,0000.18,0000.00,-000.12,17.5,24.3,03.3,02.2,0650.9,30.9
2021-03-17T21:41:00Z,00040200,00000000,0000.14,-000.00,-000.00,0000.23,0000.01,-000.18,0000.37,0000.58,0000.23,17.5,24.3,03.4,02.2,0650.9,30.9
2021-03-17T21:42:00Z,00040200,00000000,-000.01,0000.28,0000.07,0000.41,0000.17,-000.02,0000.52,0000.80,0000.74,17.5,24.3,03.5,02.3,0650.9,30.9
2021-03-17T21:43:00Z,00040200,00000000,0000.08,0000.25,0000.40,0000.22,-000.08,-000.28,0001.42,0000.94,0000.52,17.5,24.3,03.8,02.5,0650.9,30.9
2021-03-17T21:44:00Z,00040200,00000000,0000.29,0000.24,0000.15,-000.02,0000.16,0000.31,0001.80,0001.74,0001.87,17.5,24.3,04.3,02.8,0650.9,30.9
2021-03-17T21:45:00Z,00040200,00000000,0000.36,0000.54,0000.27,0000.24,0000.09,-000.16,0002.20,0001.92,0001.55,17.5,24.3,04.8,03.2,0650.8,30.9
2021-03-17T21:46:00Z,00040200,00000000,0000.42,0000.44,0000.28,0000.56,-000.05,0000.15,0000.63,0000.78,0000.37,17.5,24.2,05.5,03.6,0650.8,30.9
2021-03-17T21:47:00Z,00040200,00000000,0000.41,0000.64,0000.36,0000.70,0000.15,-000.13,0002.07,0002.03,0001.45,17.5,24.3,05.5,03.6,0650.8,30.9
2021-03-17T21:48:00Z,00040200,00000000,0000.98,0000.50,0000.54,0000.77,0000.07,0000.01,0001.31,0001.31,0001.06,17.5,24.3,06.1,04.0,0650.8,30.9
2021-03-17T21:49:00Z,00040200,00000000,0000.22,0000.37,0000.61,0000.38,0000.18,0000.10,0001.96,0001.80,0001.49,17.5,24.2,06.7,04.4,0650.8,30.9
2021-03-17T21:50:00Z,00040200,00000000,0000.40,0000.52,0000.14,-000.02,-000.05,0000.20,-002.20,-001.80,-001.01,17.5,24.2,05.9,03.9,0650.8,30.9
2021-03-17T21:51:00Z,00040200,00000000,0000.55,0000.14,0000.46,0000.07,-000.03,-000.06,-000.59,-000.73,-000.51,17.5,24.2,05.1,03.3,0650.8,30.9
2021-03-17T21:52:00Z,00040200,00000000,0000.30,-000.08,0000.37,-000.10,0000.01,0000.07,-000.15,0000.03,-000.27,17.5,24.2,04.9,03.2,0650.8,30.9
2021-03-17T21:53:00Z,00040200,00000000,0000.72,0000.37,0000.30,0000.27,-000.09,-000.01,0004.18,0003.73,0003.24,17.5,24.2,05.5,03.6,0650.8,30.9
2021-03-17T21:54:00Z,00040200,00000000,0000.62,0000.54,0000.59,0000.04,0000.04,0000.16,0005.12,0004.80,0004.03,17.5,24.2,07.0,04.6,0650.7,30.9
2021-03-17T21:55:00Z,00040200,00000000,0001.43,0001.18,0001.21,0000.34,0000.32,0000.33,0007.27,0006.71,0005.19,17.5,24.2,09.6,06.4,0650.8,30.9
2021-03-17T21:56:00Z,00040200,00000000,0001.45,0001.05,0001.08,0000.39,0000.07,0000.20,0003.92,0003.95,0003.53,17.6,24.3,10.6,07.0,0650.8,30.9
2021-03-17T21:57:00Z,00040200,40000000,,,,,,,-003.30,-003.27,-002.11,17.7,24.3,11.1,07.4,0650.8,31.0
2021-03-17T21:58:00Z,00040200,60000000,,,,,,,0000.84,0000.94,0000.67,17.4,24.4,08.8,05.7,0649.9,31.0
2021-03-17T21:59:00Z,00040200,20000000,,,,,,,-000.05,0000.24,0000.24,17.4,24.5,08.9,05.8,0649.8,31.0
